W3EJE-13 Weather Reports


time (UTC)temp
F
wind
direction
speed
knots
gust
knots
rain 1hr
in
rain 24hr
in
rain mn
in
humidity
%
barometer
mb
20260507211930 56 268 4.3 5.2 0.00 0.00 0.00 53 1011.0
20260507211426 56 328 8.7 11.3 0.00 0.00 0.00 53 1011.2
20260507210923 56 357 11.3 13.0 0.00 0.00 0.00 53 1011.0
20260507210420 56 332 6.1 7.0 0.00 0.00 0.00 54 1011.0
20260507205917 57 9 7.8 11.3 0.00 0.00 0.00 54 1010.8
20260507205415 56 285 3.5 4.3 0.00 0.00 0.00 53 1011.1
20260507204910 56 281 7.0 8.7 0.00 0.00 0.00 54 1010.9
20260507204407 57 333 2.6 4.3 0.00 0.00 0.00 54 1011.1
20260507203905 57 281 4.3 4.3 0.00 0.00 0.00 55 1011.3
20260507203403 58 228 3.5 4.3 0.00 0.00 0.00 52 1010.9
20260507202858 56 355 12.2 15.6 0.00 0.00 0.00 55 1010.9
20260507202355 57 288 10.4 13.0 0.00 0.00 0.00 54 1011.2
20260507201850 57 348 11.3 13.9 0.00 0.00 0.00 55 1011.0
20260507201346 56 349 5.2 6.1 0.00 0.00 0.00 53 1011.0
20260507200843 57 264 4.3 6.1 0.00 0.00 0.00 53 1011.3
20260507200339 56 2 11.3 13.0 0.00 0.00 0.00 54 1011.5
20260507195835 56 318 3.5 5.2 0.00 0.00 0.00 56 1011.5
20260507195332 57 335 10.4 13.9 0.00 0.00 0.00 58 1011.5
20260507194830 56 312 10.4 13.0 0.00 0.00 0.00 55 1011.4
20260507194326 58 4 7.8 11.3 0.00 0.00 0.00 56 1011.6
20260507193822 59 358 8.7 9.6 0.00 0.00 0.00 54 1011.4
20260507193320 57 242 4.3 6.1 0.00 0.00 0.00 54 1011.5
20260507192815 59 273 4.3 6.1 0.00 0.00 0.00 50 1011.5
20260507192313 58 21 7.0 11.3 0.00 0.00 0.00 53 1011.6
20260507191809 58 318 6.1 7.0 0.00 0.00 0.00 54 1011.3
20260507191305 57 298 9.6 12.2 0.00 0.00 0.00 53 1011.2
20260507190802 57 12 10.4 12.2 0.00 0.00 0.00 55 1011.4
20260507190301 57 268 7.0 8.7 0.00 0.00 0.00 53 1011.6
20260507185759 57 291 9.6 12.2 0.00 0.00 0.00 57 1011.5
20260507185255 57 293 6.1 7.0 0.00 0.00 0.00 57 1011.5
20260507184753 58 294 9.6 11.3 0.00 0.00 0.00 52 1011.6
20260507184251 58 317 3.5 4.3 0.00 0.00 0.00 57 1011.9
20260507183747 57 279 7.0 8.7 0.00 0.00 0.00 52 1011.8
20260507183244 57 25 9.6 12.2 0.00 0.00 0.00 50 1011.9
20260507182742 58 39 1.7 2.6 0.00 0.00 0.00 52 1011.5
20260507182236 57 261 7.0 8.7 0.00 0.00 0.00 55 1011.5
20260507181733 56 286 7.8 8.7 0.00 0.00 0.00 52 1011.7
20260507181230 56 334 5.2 6.1 0.00 0.00 0.00 54 1011.5
20260507180726 57 321 4.3 6.1 0.00 0.00 0.00 52 1011.5
20260507180223 57 326 8.7 12.2 0.00 0.00 0.00 59 1011.5
20260507175719 56 277 2.6 2.6 0.00 0.00 0.00 54 1011.7
20260507175216 56 326 6.1 11.3 0.00 0.00 0.00 54 1012.0
20260507174714 57 312 7.0 7.8 0.00 0.00 0.00 58 1011.8
20260507174211 56 282 3.5 5.2 0.00 0.00 0.00 56 1012.0
20260507173709 56 302 9.6 11.3 0.00 0.00 0.00 56 1012.3
20260507173205 57 303 6.1 7.0 0.00 0.00 0.00 55 1012.3
20260507172702 57 5 5.2 6.1 0.00 0.00 0.00 56 1012.3
20260507172159 56 25 9.6 11.3 0.00 0.00 0.00 55 1012.3
20260507171658 58 258 0.0 0.0 0.00 0.00 0.00 55 1012.3
20260507171156 57 276 2.6 2.6 0.00 0.00 0.00 52 1012.3
20260507170653 55 287 3.5 5.2 0.00 0.00 0.00 55 1012.6
20260507170150 55 312 5.2 6.1 0.00 0.00 0.00 56 1012.4
20260507165646 55 14 2.6 4.3 0.00 0.00 0.00 56 1012.7
20260507165142 55 340 7.0 7.8 0.00 0.00 0.00 55 1012.6
20260507164638 57 355 7.0 7.8 0.00 0.00 0.00 54 1012.5
20260507164136 56 215 0.9 1.7 0.00 0.00 0.00 57 1012.7
20260507163633 55 231 1.7 1.7 0.00 0.00 0.00 52 1012.7
20260507163131 55 316 7.0 7.8 0.00 0.00 0.00 57 1013.0
20260507162626 54 3 7.8 8.7 0.00 0.00 0.00 60 1012.9
20260507162123 54 260 1.7 2.6 0.00 0.00 0.00 59 1012.7
20260507161619 55 255 3.5 4.3 0.00 0.00 0.00 54 1013.2
20260507161116 54 305 4.3 5.2 0.00 0.00 0.00 55 1013.2
20260507160612 54 175 4.3 5.2 0.00 0.00 0.00 54 1012.8
20260507160109 54 303 7.8 11.3 0.00 0.00 0.00 55 1013.2
20260507155604 55 258 2.6 2.6 0.00 0.00 0.00 55 1013.2
20260507155101 54 273 2.6 2.6 0.00 0.00 0.00 58 1012.9
20260507154558 53 279 2.6 2.6 0.00 0.00 0.00 56 1013.2
20260507154055 53 25 3.5 5.2 0.00 0.00 0.00 58 1013.4
20260507153552 53 305 8.7 9.6 0.00 0.00 0.00 57 1013.4
20260507153048 52 329 5.2 6.1 0.00 0.00 0.00 55 1013.5
20260507152544 52 294 2.6 5.2 0.00 0.00 0.00 56 1013.3
20260507152040 52 5 4.3 5.2 0.00 0.00 0.00 57 1013.4
20260507151536 53 251 1.7 2.6 0.00 0.00 0.00 54 1013.5
20260507151034 53 322 4.3 5.2 0.00 0.00 0.00 56 1013.4
20260507150530 52 228 0.9 0.9 0.00 0.00 0.00 57 1013.6
20260507150022 51 343 8.7 9.6 0.00 0.00 0.00 57 1013.7
20260507145516 51 321 4.3 6.1 0.00 0.00 0.00 57 1013.5
20260507145014 52 250 3.5 4.3 0.00 0.00 0.00 58 1013.8
20260507144511 52 274 6.1 7.0 0.00 0.00 0.00 58 1013.7
20260507144008 51 286 2.6 4.3 0.00 0.00 0.00 59 1014.1
20260507143505 51 302 5.2 6.1 0.00 0.00 0.00 62 1014.2
20260507143003 51 351 5.2 5.2 0.00 0.00 0.00 59 1014.1
20260507142458 51 304 3.5 4.3 0.00 0.00 0.00 64 1014.2
20260507141955 50 338 5.2 8.7 0.00 0.00 0.00 63 1014.2
20260507141451 50 261 1.7 1.7 0.00 0.00 0.00 62 1014.3
20260507140948 50 328 5.2 6.1 0.00 0.00 0.00 64 1014.5
20260507140444 49 293 4.3 4.3 0.00 0.00 0.00 61 1014.4
20260507135942 50 27 4.3 5.2 0.00 0.00 0.00 62 1014.6
20260507135438 49 328 3.5 4.3 0.00 0.00 0.00 64 1014.7
20260507134936 49 273 3.5 4.3 0.00 0.00 0.00 64 1014.7
20260507134432 49 261 2.6 2.6 0.00 0.00 0.00 64 1014.9
20260507133928 49 286 6.1 7.0 0.00 0.00 0.00 64 1014.8
20260507133424 49 285 3.5 4.3 0.00 0.00 0.00 66 1014.9
20260507132918 48 275 3.5 4.3 0.00 0.00 0.00 67 1014.8
20260507132413 49 319 3.5 4.3 0.00 0.00 0.00 65 1014.6
20260507131910 48 48 2.6 2.6 0.00 0.00 0.00 64 1014.9
20260507131407 48 268 1.7 1.7 0.00 0.00 0.00 66 1015.0
20260507130904 47 285 3.5 4.3 0.00 0.00 0.00 65 1014.9
20260507130401 47 4 2.6 4.3 0.00 0.00 0.00 65 1014.9
20260507125900 48 314 7.0 7.8 0.00 0.00 0.00 65 1014.8
20260507125357 47 341 3.5 4.3 0.00 0.00 0.00 66 1014.8
20260507124855 47 311 4.3 6.1 0.00 0.00 0.00 66 1014.9
20260507124350 47 290 3.5 4.3 0.00 0.00 0.00 67 1015.2
20260507123849 47 277 2.6 2.6 0.00 0.00 0.00 67 1014.9
20260507123346 47 252 1.7 1.7 0.00 0.00 0.00 67 1015.0
20260507122842 46 307 6.1 7.8 0.00 0.00 0.00 67 1014.8
20260507122337 46 338 1.7 2.6 0.00 0.00 0.00 68 1014.9
20260507121834 46 252 0.0 0.0 0.00 0.00 0.00 74 1014.9
20260507121330 45 253 0.9 0.9 0.00 0.00 0.00 74 1014.8
20260507120826 45 259 0.9 0.9 0.00 0.00 0.00 75 1015.0
20260507120323 45 258 0.9 1.7 0.00 0.00 0.00 73 1014.8
20260507115819 45 248 0.0 0.0 0.00 0.00 0.00 75 1014.8
20260507115315 44 263 1.7 1.7 0.00 0.00 0.00 74 1015.0
20260507114811 44 254 0.0 0.0 0.00 0.00 0.00 75 1014.9
20260507114308 44 261 0.0 0.0 0.00 0.00 0.00 77 1015.0
20260507113806 44 256 0.0 0.0 0.00 0.00 0.00 78 1014.7
20260507113302 44 256 0.0 0.0 0.00 0.00 0.00 78 1014.6
20260507112800 43 256 0.0 0.0 0.00 0.00 0.00 78 1014.8
20260507112257 43 256 0.0 0.0 0.00 0.00 0.00 79 1014.6
20260507111755 43 255 0.0 0.0 0.00 0.00 0.00 79 1014.4
20260507111251 44 255 0.0 0.0 0.00 0.00 0.00 79 1014.3
20260507110747 44 255 0.0 0.0 0.00 0.00 0.00 79 1014.3
20260507110244 44 255 0.0 0.0 0.00 0.00 0.00 79 1014.2
20260507105741 44 255 0.0 0.0 0.00 0.00 0.00 79 1014.4
20260507105236 44 255 0.0 0.0 0.00 0.00 0.00 79 1014.4
20260507104734 43 249 0.0 0.0 0.00 0.00 0.00 79 1014.3
20260507104231 44 233 0.0 0.0 0.00 0.00 0.00 79 1014.5
20260507103727 43 239 0.0 0.0 0.00 0.00 0.00 80 1014.1
20260507103223 43 240 0.0 0.0 0.00 0.00 0.00 80 1013.8
20260507102719 43 242 0.0 0.0 0.00 0.00 0.00 80 1014.2
20260507102216 43 242 0.0 0.0 0.00 0.00 0.00 80 1014.1
20260507101712 43 242 0.0 0.0 0.00 0.00 0.00 80 1013.9
20260507101207 43 248 0.0 0.0 0.00 0.00 0.00 79 1013.8
20260507100705 43 251 0.0 0.0 0.00 0.00 0.00 80 1013.8
20260507100203 43 253 0.0 0.0 0.00 0.00 0.00 79 1013.8
20260507095701 43 253 0.0 0.0 0.00 0.00 0.00 79 1013.9
20260507095157 43 252 0.0 0.0 0.00 0.00 0.00 79 1014.2
20260507094654 43 250 0.0 0.0 0.00 0.00 0.00 80 1014.1
20260507094150 44 256 0.0 0.0 0.00 0.00 0.00 81 1014.2
20260507093648 43 248 0.0 0.0 0.00 0.00 0.00 81 1014.1
20260507093147 43 245 0.0 0.0 0.00 0.00 0.00 82 1013.8
20260507092643 43 244 0.0 0.0 0.00 0.00 0.00 81 1013.8
20260507092139 44 253 0.0 0.0 0.00 0.00 0.00 81 1013.8
20260507091636 44 253 0.0 0.0 0.00 0.00 0.00 80 1013.9
20260507091132 44 264 0.9 0.9 0.00 0.00 0.00 79 1013.8
20260507090628 44 255 0.0 0.0 0.00 0.00 0.00 79 1013.8
20260507090126 44 245 0.0 0.0 0.00 0.00 0.00 80 1013.9
20260507085622 44 253 0.0 0.9 0.00 0.00 0.00 79 1013.6
20260507085119 44 252 0.9 0.9 0.00 0.00 0.00 80 1013.9
20260507084616 44 283 1.7 2.6 0.00 0.00 0.00 81 1013.7
20260507084113 44 318 2.6 2.6 0.00 0.00 0.00 81 1013.7
20260507083609 44 249 0.0 0.0 0.00 0.00 0.00 81 1014.1
20260507083107 44 259 0.9 0.9 0.00 0.00 0.00 82 1013.7
20260507082602 44 268 0.9 1.7 0.00 0.00 0.00 82 1013.8
20260507082059 44 255 1.7 1.7 0.00 0.00 0.00 81 1014.1
20260507081555 45 257 0.9 0.9 0.00 0.00 0.00 82 1013.9
20260507081052 45 262 1.7 1.7 0.00 0.00 0.00 83 1013.8
20260507080548 45 254 0.0 0.9 0.00 0.00 0.00 84 1013.7
20260507080045 45 263 0.9 1.7 0.00 0.00 0.00 83 1013.8
20260507075540 45 253 0.0 0.0 0.00 0.00 0.00 82 1013.7
20260507075036 45 259 0.0 0.0 0.00 0.00 0.00 81 1014.2
20260507074533 45 258 0.0 0.9 0.00 0.00 0.00 80 1014.2
20260507074032 45 256 0.0 0.0 0.00 0.00 0.00 79 1014.1
20260507073527 45 262 0.9 1.7 0.00 0.00 0.00 79 1013.9
20260507073024 45 259 0.0 0.9 0.00 0.00 0.00 80 1013.9
20260507072522 45 253 0.0 0.9 0.00 0.00 0.00 82 1013.8
20260507072019 45 270 0.9 0.9 0.00 0.00 0.00 82 1014.1
20260507071516 45 264 1.7 1.7 0.00 0.00 0.00 85 1014.1
20260507071012 45 251 0.0 0.0 0.00 0.00 0.00 87 1013.8
20260507070510 45 244 0.0 0.0 0.00 0.00 0.00 88 1013.9
20260507070010 46 253 0.0 0.0 0.00 0.00 0.00 89 1014.2
20260507065503 46 247 0.0 0.0 0.00 0.00 0.00 89 1013.8
20260507065000 45 254 0.9 0.9 0.00 0.00 0.00 89 1014.1
20260507064458 46 256 0.0 0.0 0.00 0.00 0.00 91 1014.1
20260507063956 46 253 0.0 0.0 0.00 0.00 0.00 91 1013.7
20260507063453 46 253 0.0 0.9 0.00 0.00 0.00 91 1013.7
20260507062950 46 269 0.9 0.9 0.00 0.00 0.00 90 1014.1
20260507062447 46 286 2.6 2.6 0.00 0.00 0.00 90 1013.6
20260507061944 46 258 0.9 1.7 0.00 0.00 0.00 91 1013.6
20260507061442 46 259 0.9 1.7 0.00 0.00 0.00 91 1013.9
20260507060940 46 265 1.7 1.7 0.00 0.00 0.00 91 1014.1
20260507060437 46 270 0.9 1.7 0.00 0.00 0.00 91 1014.2
20260507055933 46 275 0.9 0.9 0.00 0.00 0.00 92 1013.9
20260507055429 46 305 2.6 2.6 0.00 0.00 0.00 92 1014.3
20260507054926 46 251 0.0 0.9 0.00 0.00 0.00 93 1014.3
20260507054422 46 255 0.9 1.7 0.00 0.00 0.00 93 1014.3
20260507053919 46 269 1.7 1.7 0.00 0.00 0.00 93 1014.5
20260507053417 46 270 2.6 2.6 0.00 0.00 0.00 93 1014.3
20260507052915 46 276 0.9 1.7 0.00 0.00 0.00 93 1014.6
20260507052412 46 242 0.0 0.0 0.00 0.00 0.00 94 1014.5
20260507051909 46 252 0.0 0.0 0.00 0.00 0.00 95 1014.5
20260507051407 46 251 0.0 0.0 0.00 0.00 0.00 96 1014.6
20260507050903 46 251 0.0 0.0 0.00 0.00 0.00 96 1014.2
20260507050400 46 264 0.9 0.9 0.00 0.00 0.00 97 1014.4
20260507045857 46 262 0.9 0.9 0.00 0.00 0.00 97 1014.3
20260507045353 47 249 2.6 2.6 0.00 0.00 0.00 98 1014.1
20260507044851 47 267 0.9 1.7 0.00 0.00 0.00 99 1014.4
20260507044347 47 281 2.6 4.3 0.00 0.00 0.00 98 1014.4
20260507043843 47 295 1.7 2.6 0.00 0.00 0.00 98 1014.2
20260507043340 47 286 1.7 1.7 0.00 0.00 0.00 98 1014.2
20260507042836 47 255 0.0 0.9 0.00 0.00 0.00 98 1014.3
20260507042332 47 260 0.9 1.7 0.00 0.00 0.00 98 1014.1
20260507041829 47 258 0.0 0.9 0.00 0.00 0.00 98 1014.3
20260507041325 47 256 0.9 0.9 0.00 0.00 0.00 98 1014.1
20260507040823 47 256 0.9 1.7 0.00 0.00 0.00 99 1014.3
20260507040319 47 330 2.6 2.6 0.00 0.00 0.00 99 1014.3
20260507035815 47 259 2.6 2.6 0.00 0.13 0.13 99 1014.1
20260507035310 47 268 2.6 2.6 0.00 0.13 0.13 99 1014.2
20260507034808 48 287 1.7 1.7 0.00 0.13 0.13 99 1014.3
20260507034305 48 261 1.7 1.7 0.00 0.13 0.13 99 1014.4
20260507033803 48 266 0.9 0.9 0.00 0.13 0.13 99 1014.5
20260507033301 48 257 0.0 0.0 0.00 0.13 0.13 99 1014.4
20260507032757 48 257 0.0 0.0 0.00 0.13 0.13 99 1014.6
20260507032253 48 256 0.9 0.9 0.00 0.13 0.13 99 1014.5
20260507031750 48 251 0.0 0.0 0.00 0.13 0.13 98 1014.4
20260507031247 48 244 0.0 0.0 0.00 0.13 0.13 98 1014.4
20260507030744 48 254 0.0 0.0 0.00 0.13 0.13 98 1014.2
20260507030241 48 253 0.0 0.0 0.00 0.13 0.13 97 1014.4
20260507025738 48 256 0.9 0.9 0.00 0.13 0.13 97 1014.2
20260507025235 48 254 0.0 0.0 0.00 0.13 0.13 97 1014.1
20260507024733 48 263 0.0 0.9 0.00 0.13 0.13 97 1013.8
20260507024231 48 259 0.9 0.9 0.00 0.13 0.13 97 1014.1
20260507023726 48 262 0.0 0.0 0.00 0.13 0.13 97 1013.9
20260507023223 48 261 0.9 1.7 0.00 0.13 0.13 97 1014.3
20260507022720 48 256 0.0 0.0 0.00 0.13 0.13 97 1014.1
20260507022216 48 252 0.0 0.0 0.00 0.13 0.13 97 1013.7
20260507021712 48 258 0.9 0.9 0.00 0.13 0.13 97 1013.8
20260507021208 48 253 0.0 0.0 0.00 0.13 0.13 98 1014.1
20260507020707 48 254 0.0 0.0 0.00 0.13 0.13 98 1013.8
20260507020202 48 254 0.0 0.0 0.00 0.13 0.13 98 1013.8
20260507015701 48 237 0.0 0.0 0.00 0.13 0.13 98 1013.6
20260507015158 48 246 0.0 0.0 0.00 0.13 0.13 98 1013.9
20260507014654 47 256 0.9 0.9 0.00 0.13 0.13 99 1013.8
20260507014150 47 253 0.0 0.0 0.00 0.13 0.13 99 1013.8
20260507013647 47 258 0.9 0.9 0.00 0.13 0.13 99 1013.7
20260507013144 48 269 0.9 1.7 0.00 0.13 0.13 99 1013.3
20260507012642 48 255 0.9 1.7 0.00 0.13 0.13 99 1013.5
20260507012137 47 255 0.9 0.9 0.00 0.13 0.13 99 1013.6
20260507011635 48 276 1.7 1.7 0.00 0.13 0.13 99 1013.5
20260507011131 47 255 0.0 0.9 0.00 0.13 0.13 99 1013.4
20260507010626 48 253 0.0 0.0 0.00 0.13 0.13 99 1013.9
20260507010122 48 253 0.0 0.0 0.00 0.13 0.13 99 1013.3
20260507005620 48 251 0.0 0.0 0.00 0.13 0.13 99 1013.7
20260507005116 48 256 0.0 0.9 0.00 0.13 0.13 99 1013.9
20260507004613 48 260 0.0 0.0 0.00 0.13 0.13 99 1014.1
20260507004110 48 255 0.9 1.7 0.00 0.13 0.13 99 1013.7
20260507003606 48 279 4.3 4.3 0.00 0.13 0.13 99 1013.7
20260507003101 48 15 4.3 4.3 0.00 0.13 0.13 98 1013.8
20260507002558 48 255 3.5 5.2 0.00 0.13 0.13 97 1013.6
20260507002054 49 322 6.1 7.0 0.00 0.13 0.13 96 1014.4
20260507001551 49 335 7.0 8.7 0.00 0.13 0.13 96 1014.1
20260507001048 49 10 7.0 7.8 0.00 0.13 0.13 97 1014.1
20260507000544 49 301 4.3 6.1 0.00 0.13 0.13 97 1013.8
20260507000040 49 331 6.1 7.0 0.00 0.13 0.13 97 1013.6
20260506235538 50 349 6.1 7.0 0.00 0.13 0.13 97 1013.7
20260506235033 50 8 4.3 6.1 0.00 0.13 0.13 97 1013.4
20260506234531 50 267 3.5 5.2 0.00 0.13 0.13 97 1013.5
20260506234028 50 304 5.2 6.1 0.00 0.13 0.13 98 1013.1
20260506233525 50 317 6.1 7.8 0.00 0.13 0.13 98 1013.2
20260506233022 50 281 2.6 2.6 0.00 0.13 0.13 98 1013.5
20260506232517 50 291 2.6 2.6 0.00 0.13 0.13 98 1013.5
20260506232013 50 266 2.6 2.6 0.00 0.13 0.13 98 1013.3
20260506231511 50 320 5.2 6.1 0.00 0.13 0.13 99 1013.2
20260506231009 50 270 3.5 6.1 0.00 0.13 0.13 99 1013.1
20260506230504 50 242 1.7 1.7 0.00 0.13 0.13 99 1012.9
20260506230003 50 286 4.3 5.2 0.00 0.13 0.13 99 1012.7
20260506225459 50 306 2.6 2.6 0.00 0.13 0.13 99 1012.8
20260506224955 50 270 3.5 4.3 0.00 0.13 0.13 99 1012.5
20260506224452 50 353 4.3 5.2 0.00 0.13 0.13 99 1012.6
20260506223949 50 284 4.3 5.2 0.00 0.13 0.13 99 1012.7
20260506223445 50 292 3.5 4.3 0.00 0.13 0.13 99 1012.8
20260506222942 51 288 3.5 5.2 0.00 0.13 0.13 98 1012.8
20260506222439 51 266 2.6 2.6 0.00 0.13 0.13 98 1012.6
20260506221935 51 318 3.5 4.3 0.00 0.13 0.13 98 1012.6
20260506221432 51 266 1.7 1.7 0.00 0.13 0.13 98 1012.7
20260506220930 51 262 1.7 1.7 0.00 0.13 0.13 98 1012.7
20260506220425 51 341 3.5 4.3 0.00 0.13 0.13 98 1012.7
20260506215922 51 242 1.7 2.6 0.00 0.13 0.13 98 1012.7
20260506215418 51 292 4.3 7.0 0.00 0.13 0.13 98 1012.7
20260506214914 51 285 3.5 4.3 0.00 0.13 0.13 98 1012.3
20260506214411 51 333 5.2 6.1 0.00 0.13 0.13 98 1012.6
20260506213909 51 273 3.5 4.3 0.00 0.13 0.13 99 1012.3
20260506213406 51 335 4.3 5.2 0.00 0.13 0.13 99 1012.3
20260506212904 51 262 4.3 5.2 0.00 0.13 0.13 99 1011.9
20260506212359 51 313 4.3 6.1 0.00 0.13 0.13 99 1012.0